Time,TemperatureF,DewpointF,PressureIn,WindDirection,WindDirectionDegrees,WindSpeedMPH,WindSpeedGustMPH,Humidity,HourlyPrecipIn,Conditions,Clouds,dailyrainin,SoftwareType,DateUTC
2013-02-01 00:00:00,38.5,37.7,30.33,SE,135,1.1,2.0,97,0.00,,---,0.00,VWS V14.01,2013-02-01 08:00:00,
2013-02-01 00:05:00,38.3,37.5,30.33,SE,135,0.0,2.0,97,0.00,,---,0.00,VWS V14.01,2013-02-01 08:05:00,
2013-02-01 00:10:00,38.1,37.3,30.33,SE,135,0.0,0.0,97,0.00,,---,0.00,VWS V14.01,2013-02-01 08:10:00,
2013-02-01 00:15:00,37.9,37.2,30.33,SE,135,0.0,0.0,97,0.00,,---,0.00,VWS V14.01,2013-02-01 08:15:00,
2013-02-01 00:20:00,37.8,37.0,30.33,SE,135,0.0,0.0,97,0.00,,---,0.00,VWS V14.01,2013-02-01 08:20:00,
2013-02-01 00:25:00,37.8,37.0,30.33,SE,135,0.0,0.0,97,0.00,,---,0.00,VWS V14.01,2013-02-01 08:25:00,
2013-02-01 00:30:00,37.9,37.2,30.33,SE,135,0.0,0.0,97,0.00,,---,0.00,VWS V14.01,2013-02-01 08:30:00,
2013-02-01 00:35:00,37.8,37.0,30.33,SSE,158,0.0,0.0,97,0.00,,---,0.00,VWS V14.01,2013-02-01 08:35:00,
2013-02-01 00:41:00,37.8,37.0,30.33,SSE,158,0.0,0.0,97,0.00,,---,0.00,VWS V14.01,2013-02-01 08:41:00,
2013-02-01 00:46:00,37.8,37.0,30.33,SSE,158,0.0,0.0,97,0.00,,---,0.00,VWS V14.01,2013-02-01 08:46:00,
2013-02-01 00:51:00,37.9,37.2,30.33,SSE,158,0.0,0.0,97,0.00,,---,0.00,VWS V14.01,2013-02-01 08:51:00,
2013-02-01 00:56:00,37.9,37.2,30.33,SSE,158,0.0,0.0,97,0.00,,---,0.00,VWS V14.01,2013-02-01 08:56:00,
2013-02-01 01:01:00,37.6,36.8,30.33,SSE,158,1.3,1.3,97,0.00,,---,0.00,VWS V14.01,2013-02-01 09:01:00,
2013-02-01 01:06:00,37.4,36.6,30.33,SSE,158,0.0,1.3,97,0.00,,---,0.00,VWS V14.01,2013-02-01 09:06:00,
2013-02-01 01:11:00,37.6,36.8,30.33,SSE,158,0.0,0.0,97,0.00,,---,0.00,VWS V14.01,2013-02-01 09:11:00,
2013-02-01 01:16:00,37.6,36.8,30.33,SSE,158,0.9,0.9,97,0.00,,---,0.00,VWS V14.01,2013-02-01 09:16:00,
2013-02-01 01:21:00,37.4,36.6,30.33,SSE,158,0.0,0.0,97,0.00,,---,0.00,VWS V14.01,2013-02-01 09:21:00,
2013-02-01 01:26:00,37.4,36.6,30.33,SSE,158,0.0,0.0,97,0.00,,---,0.00,VWS V14.01,2013-02-01 09:26:00,
2013-02-01 01:31:00,37.4,36.6,30.33,SSE,158,0.0,0.0,97,0.00,,---,0.00,VWS V14.01,2013-02-01 09:31:00,
2013-02-01 01:36:00,37.2,36.5,30.33,SSE,158,0.0,0.0,97,0.00,,---,0.00,VWS V14.01,2013-02-01 09:36:00,
2013-02-01 01:41:00,37.2,36.5,30.33,SSE,158,0.0,0.0,97,0.00,,---,0.00,VWS V14.01,2013-02-01 09:41:00,
2013-02-01 01:46:00,37.0,36.3,30.33,SSE,158,0.0,0.0,97,0.00,,---,0.00,VWS V14.01,2013-02-01 09:46:00,
2013-02-01 01:51:00,37.0,36.3,30.33,SSE,158,0.0,0.0,97,0.00,,---,0.00,VWS V14.01,2013-02-01 09:51:00,
2013-02-01 01:56:00,36.9,36.1,30.33,SSE,158,0.0,1.6,97,0.00,,---,0.00,VWS V14.01,2013-02-01 09:56:00,
2013-02-01 02:01:00,36.9,36.1,30.33,SSE,158,0.0,0.0,97,0.00,,---,0.00,VWS V14.01,2013-02-01 10:01:00,
2013-02-01 02:06:00,36.9,36.1,30.33,SSE,158,0.0,0.0,97,0.00,,---,0.00,VWS V14.01,2013-02-01 10:06:00,
2013-02-01 02:11:00,36.9,36.1,30.33,SSE,158,0.0,0.0,97,0.00,,---,0.00,VWS V14.01,2013-02-01 10:11:00,
2013-02-01 02:16:00,36.7,35.9,30.33,SSE,158,0.0,0.0,97,0.00,,---,0.00,VWS V14.01,2013-02-01 10:16:00,
2013-02-01 02:21:00,36.7,35.9,30.33,SSE,158,0.0,0.0,97,0.00,,---,0.00,VWS V14.01,2013-02-01 10:21:00,
2013-02-01 02:26:00,36.3,35.5,30.33,SSE,158,0.0,0.0,97,0.00,,---,0.00,VWS V14.01,2013-02-01 10:26:00,
2013-02-01 02:31:00,36.1,35.4,30.33,SSE,158,0.0,0.0,97,0.00,,---,0.00,VWS V14.01,2013-02-01 10:31:00,
2013-02-01 02:36:00,36.1,35.4,30.33,SSE,158,0.0,0.0,97,0.00,,---,0.00,VWS V14.01,2013-02-01 10:36:00,
2013-02-01 02:41:00,36.1,35.4,30.33,SSE,158,0.0,0.0,97,0.00,,---,0.00,VWS V14.01,2013-02-01 10:41:00,
2013-02-01 02:47:00,36.1,35.4,30.33,SSE,158,0.0,0.0,97,0.00,,---,0.00,VWS V14.01,2013-02-01 10:47:00,
2013-02-01 02:52:00,36.3,35.5,30.30,SSE,158,0.0,0.0,97,0.00,,---,0.00,VWS V14.01,2013-02-01 10:52:00,
2013-02-01 02:57:00,36.1,35.4,30.30,SSE,158,0.0,0.0,97,0.00,,---,0.00,VWS V14.01,2013-02-01 10:57:00,
2013-02-01 03:02:00,36.0,35.5,30.30,SSE,158,0.0,0.0,98,0.00,,---,0.00,VWS V14.01,2013-02-01 11:02:00,
2013-02-01 03:07:00,35.8,35.0,30.30,SSE,158,0.0,0.0,97,0.00,,---,0.00,VWS V14.01,2013-02-01 11:07:00,
2013-02-01 03:12:00,35.6,34.8,30.30,SSE,158,0.0,0.0,97,0.00,,---,0.00,VWS V14.01,2013-02-01 11:12:00,
2013-02-01 03:17:00,35.6,34.8,30.30,SSE,158,0.0,0.0,97,0.00,,---,0.00,VWS V14.01,2013-02-01 11:17:00,
2013-02-01 03:22:00,35.8,35.0,30.30,SSE,158,1.3,1.3,97,0.00,,---,0.00,VWS V14.01,2013-02-01 11:22:00,
2013-02-01 03:27:00,35.8,35.3,30.30,SSE,158,1.1,1.6,98,0.00,,---,0.00,VWS V14.01,2013-02-01 11:27:00,
2013-02-01 03:32:00,36.1,35.6,30.30,SSE,158,1.6,2.0,98,0.00,,---,0.00,VWS V14.01,2013-02-01 11:32:00,
2013-02-01 03:37:00,36.5,36.0,30.30,SSE,158,1.6,2.0,98,0.00,,---,0.00,VWS V14.01,2013-02-01 11:37:00,
2013-02-01 03:42:00,36.7,36.2,30.30,SSE,158,0.9,1.3,98,0.00,,---,0.00,VWS V14.01,2013-02-01 11:42:00,
2013-02-01 03:47:00,36.9,36.3,30.30,SSE,158,0.0,1.3,98,0.00,,---,0.00,VWS V14.01,2013-02-01 11:47:00,
2013-02-01 03:52:00,36.7,36.2,30.30,SSE,158,0.0,0.0,98,0.00,,---,0.00,VWS V14.01,2013-02-01 11:52:00,
2013-02-01 03:57:00,36.3,35.8,30.30,SSE,158,0.0,1.1,98,0.00,,---,0.00,VWS V14.01,2013-02-01 11:57:00,
2013-02-01 04:02:00,36.3,35.8,30.30,SSE,158,0.0,0.0,98,0.00,,---,0.00,VWS V14.01,2013-02-01 12:02:00,
2013-02-01 04:07:00,36.3,35.8,30.30,SSE,158,0.0,0.0,98,0.00,,---,0.00,VWS V14.01,2013-02-01 12:07:00,
2013-02-01 04:13:00,36.1,35.6,30.30,SSE,158,1.1,1.3,98,0.00,,---,0.00,VWS V14.01,2013-02-01 12:13:00,
2013-02-01 04:18:00,36.0,35.5,30.30,SSE,158,0.0,1.3,98,0.00,,---,0.00,VWS V14.01,2013-02-01 12:18:00,
2013-02-01 04:23:00,36.1,35.6,30.27,SSE,158,0.9,0.9,98,0.00,,---,0.00,VWS V14.01,2013-02-01 12:23:00,
2013-02-01 04:28:00,36.0,35.5,30.27,SSE,158,0.0,0.9,98,0.00,,---,0.00,VWS V14.01,2013-02-01 12:28:00,
2013-02-01 04:33:00,35.8,35.3,30.27,SSE,158,0.0,0.0,98,0.00,,---,0.00,VWS V14.01,2013-02-01 12:33:00,
2013-02-01 04:38:00,35.8,35.3,30.27,SSE,158,0.0,0.0,98,0.00,,---,0.00,VWS V14.01,2013-02-01 12:38:00,
2013-02-01 04:43:00,35.6,35.1,30.27,SSE,158,0.0,0.0,98,0.00,,---,0.00,VWS V14.01,2013-02-01 12:43:00,
2013-02-01 04:48:00,35.4,34.9,30.27,SSE,158,0.0,0.0,98,0.00,,---,0.00,VWS V14.01,2013-02-01 12:48:00,
2013-02-01 04:53:00,35.1,34.5,30.27,SSE,158,0.0,0.0,98,0.00,,---,0.00,VWS V14.01,2013-02-01 12:53:00,
2013-02-01 04:58:00,35.1,34.5,30.27,SSE,158,0.0,0.0,98,0.00,,---,0.00,VWS V14.01,2013-02-01 12:58:00,
2013-02-01 05:03:00,35.2,34.7,30.27,SSE,158,0.0,0.0,98,0.00,,---,0.00,VWS V14.01,2013-02-01 13:03:00,
2013-02-01 05:08:00,35.1,34.5,30.27,SSE,158,0.0,0.0,98,0.00,,---,0.00,VWS V14.01,2013-02-01 13:08:00,
2013-02-01 05:13:00,35.1,34.5,30.27,SSE,158,0.0,0.0,98,0.00,,---,0.00,VWS V14.01,2013-02-01 13:13:00,
2013-02-01 05:18:00,35.1,34.5,30.27,SE,135,0.0,0.0,98,0.00,,---,0.00,VWS V14.01,2013-02-01 13:18:00,
2013-02-01 05:23:00,35.1,34.5,30.27,SE,135,0.0,0.0,98,0.00,,---,0.00,VWS V14.01,2013-02-01 13:23:00,
2013-02-01 05:28:00,34.9,34.4,30.27,SE,135,0.0,0.0,98,0.00,,---,0.00,VWS V14.01,2013-02-01 13:28:00,
2013-02-01 05:33:00,34.9,34.4,30.27,SE,135,1.1,1.6,98,0.00,,---,0.00,VWS V14.01,2013-02-01 13:33:00,
2013-02-01 05:38:00,35.4,34.9,30.27,SE,135,0.0,1.6,98,0.00,,---,0.00,VWS V14.01,2013-02-01 13:38:00,
2013-02-01 05:43:00,35.2,34.7,30.27,SE,135,0.0,0.0,98,0.00,,---,0.00,VWS V14.01,2013-02-01 13:43:00,
2013-02-01 05:48:00,35.2,34.7,30.27,SE,135,0.0,0.0,98,0.00,,---,0.00,VWS V14.01,2013-02-01 13:48:00,
2013-02-01 05:53:00,35.2,34.7,30.27,SE,135,0.0,0.0,98,0.00,,---,0.00,VWS V14.01,2013-02-01 13:53:00,
2013-02-01 05:58:00,35.1,34.5,30.27,SE,135,0.0,0.0,98,0.00,,---,0.00,VWS V14.01,2013-02-01 13:58:00,
2013-02-01 06:04:00,34.9,34.4,30.27,SE,135,0.0,0.0,98,0.00,,---,0.00,VWS V14.01,2013-02-01 14:04:00,
2013-02-01 06:09:00,34.9,34.4,30.27,SE,135,0.0,0.0,98,0.00,,---,0.00,VWS V14.01,2013-02-01 14:09:00,
2013-02-01 06:14:00,34.9,34.4,30.27,SE,135,0.0,0.0,98,0.00,,---,0.00,VWS V14.01,2013-02-01 14:14:00,
2013-02-01 06:19:00,34.9,34.4,30.27,SE,135,0.0,0.0,98,0.00,,---,0.00,VWS V14.01,2013-02-01 14:19:00,
2013-02-01 06:24:00,34.9,34.4,30.27,SE,135,0.0,0.0,98,0.00,,---,0.00,VWS V14.01,2013-02-01 14:24:00,
2013-02-01 06:29:00,34.9,34.4,30.27,SE,135,0.0,0.0,98,0.00,,---,0.00,VWS V14.01,2013-02-01 14:29:00,
2013-02-01 06:34:00,34.7,34.2,30.27,SE,135,0.0,0.0,98,0.00,,---,0.00,VWS V14.01,2013-02-01 14:34:00,
2013-02-01 06:39:00,34.5,34.0,30.27,SE,135,0.0,0.0,98,0.00,,---,0.00,VWS V14.01,2013-02-01 14:39:00,
2013-02-01 06:44:00,34.5,34.0,30.27,SE,135,0.0,0.0,98,0.00,,---,0.00,VWS V14.01,2013-02-01 14:44:00,
2013-02-01 06:49:00,34.5,34.0,30.27,SE,135,0.0,0.0,98,0.00,,---,0.00,VWS V14.01,2013-02-01 14:49:00,
2013-02-01 06:54:00,34.5,34.0,30.27,SE,135,0.0,0.0,98,0.00,,---,0.00,VWS V14.01,2013-02-01 14:54:00,
2013-02-01 06:59:00,34.5,34.0,30.27,SE,135,0.0,0.0,98,0.00,,---,0.00,VWS V14.01,2013-02-01 14:59:00,
2013-02-01 07:04:00,34.3,33.8,30.27,SE,135,0.0,0.0,98,0.00,,---,0.00,VWS V14.01,2013-02-01 15:04:00,
2013-02-01 07:09:00,34.2,33.7,30.27,SE,135,0.0,0.0,98,0.00,,---,0.00,VWS V14.01,2013-02-01 15:09:00,
2013-02-01 07:14:00,34.5,34.0,30.27,SSE,158,0.0,0.0,98,0.00,,---,0.00,VWS V14.01,2013-02-01 15:14:00,
2013-02-01 07:19:00,34.2,33.7,30.27,SSE,158,0.0,0.0,98,0.00,,---,0.00,VWS V14.01,2013-02-01 15:19:00,
2013-02-01 07:24:00,34.2,33.7,30.27,SSE,158,0.0,0.0,98,0.00,,---,0.00,VWS V14.01,2013-02-01 15:24:00,
2013-02-01 07:29:00,34.3,33.8,30.27,SSE,158,0.0,0.0,98,0.00,,---,0.00,VWS V14.01,2013-02-01 15:29:00,
2013-02-01 07:34:00,34.0,33.5,30.27,SSE,158,0.0,0.0,98,0.00,,---,0.00,VWS V14.01,2013-02-01 15:34:00,
2013-02-01 07:39:00,34.2,33.7,30.27,SSE,158,0.0,0.0,98,0.00,,---,0.00,VWS V14.01,2013-02-01 15:39:00,
2013-02-01 07:44:00,33.8,33.3,30.27,SSE,158,0.0,0.0,98,0.00,,---,0.00,VWS V14.01,2013-02-01 15:44:00,
2013-02-01 07:50:00,33.8,33.3,30.27,SSE,158,0.0,0.0,98,0.00,,---,0.00,VWS V14.01,2013-02-01 15:50:00,
2013-02-01 07:55:00,34.0,33.5,30.27,SSE,158,0.0,0.0,98,0.00,,---,0.00,VWS V14.01,2013-02-01 15:55:00,
2013-02-01 08:00:00,34.0,33.5,30.27,SSE,158,0.0,0.0,98,0.00,,---,0.00,VWS V14.01,2013-02-01 16:00:00,
2013-02-01 08:05:00,34.3,33.8,30.27,SSE,158,0.0,0.0,98,0.00,,---,0.00,VWS V14.01,2013-02-01 16:05:00,
2013-02-01 08:10:00,34.5,34.0,30.27,SSE,158,0.0,0.9,98,0.00,,---,0.00,VWS V14.01,2013-02-01 16:10:00,
2013-02-01 08:15:00,34.7,34.2,30.27,SE,135,1.6,1.6,98,0.00,,---,0.00,VWS V14.01,2013-02-01 16:15:00,
2013-02-01 08:20:00,34.9,34.4,30.27,SE,135,1.1,1.6,98,0.00,,---,0.00,VWS V14.01,2013-02-01 16:20:00,
2013-02-01 08:25:00,35.6,35.1,30.27,SE,135,1.6,1.6,98,0.00,,---,0.00,VWS V14.01,2013-02-01 16:25:00,
2013-02-01 08:30:00,37.6,37.1,30.27,ESE,112,4.3,4.7,98,0.00,,---,0.00,VWS V14.01,2013-02-01 16:30:00,
2013-02-01 08:35:00,38.5,38.0,30.27,ESE,112,0.0,4.3,98,0.00,,---,0.00,VWS V14.01,2013-02-01 16:35:00,
2013-02-01 08:40:00,38.3,37.8,30.27,SSE,158,0.0,4.3,98,0.00,,---,0.00,VWS V14.01,2013-02-01 16:40:00,
2013-02-01 08:45:00,38.3,37.8,30.27,SSE,158,0.0,0.0,98,0.00,,---,0.00,VWS V14.01,2013-02-01 16:45:00,
2013-02-01 08:50:00,38.7,38.2,30.27,SSE,158,0.0,0.0,98,0.00,,---,0.00,VWS V14.01,2013-02-01 16:50:00,
2013-02-01 08:55:00,39.2,38.7,30.27,SSW,202,1.1,1.1,98,0.00,,---,0.00,VWS V14.01,2013-02-01 16:55:00,
2013-02-01 09:00:00,39.7,39.2,30.27,SE,135,0.0,1.1,98,0.00,,---,0.00,VWS V14.01,2013-02-01 17:00:00,
2013-02-01 09:05:00,40.3,39.8,30.27,SE,135,0.0,0.0,98,0.00,,---,0.00,VWS V14.01,2013-02-01 17:05:00,
2013-02-01 09:10:00,40.8,40.3,30.27,WNW,292,0.0,2.7,98,0.00,,---,0.00,VWS V14.01,2013-02-01 17:10:00,
2013-02-01 09:15:00,41.5,41.0,30.27,SSW,202,0.0,0.0,98,0.00,,---,0.00,VWS V14.01,2013-02-01 17:15:00,
2013-02-01 09:20:00,41.7,41.2,30.27,WSW,248,2.5,2.5,98,0.00,,---,0.00,VWS V14.01,2013-02-01 17:20:00,
2013-02-01 09:25:00,42.4,41.9,30.27,WNW,292,0.0,2.5,98,0.00,,---,0.00,VWS V14.01,2013-02-01 17:25:00,
2013-02-01 09:30:00,43.0,42.5,30.27,WNW,292,0.9,0.9,98,0.00,,---,0.00,VWS V14.01,2013-02-01 17:30:00,
2013-02-01 09:35:00,43.5,43.0,30.27,NNW,338,0.0,2.0,98,0.00,,---,0.00,VWS V14.01,2013-02-01 17:35:00,
2013-02-01 09:40:00,44.1,43.5,30.27,NNW,338,0.0,0.0,98,0.00,,---,0.00,VWS V14.01,2013-02-01 17:40:00,
2013-02-01 09:45:00,44.8,44.2,30.27,NW,315,0.0,1.3,98,0.00,,---,0.00,VWS V14.01,2013-02-01 17:45:00,
2013-02-01 09:50:00,45.1,44.6,30.27,NNW,338,2.9,2.9,98,0.00,,---,0.00,VWS V14.01,2013-02-01 17:50:00,
2013-02-01 09:55:00,45.7,45.2,30.27,NNE,22,0.0,2.9,98,0.00,,---,0.00,VWS V14.01,2013-02-01 17:55:00,
2013-02-01 10:00:00,46.0,45.5,30.27,NNW,338,1.3,2.9,98,0.00,,---,0.00,VWS V14.01,2013-02-01 18:00:00,
2013-02-01 10:05:00,46.4,45.9,30.27,East,90,0.0,2.2,98,0.00,,---,0.00,VWS V14.01,2013-02-01 18:05:00,
2013-02-01 10:10:00,46.9,46.4,30.27,NNE,22,2.5,2.5,98,0.00,,---,0.00,VWS V14.01,2013-02-01 18:10:00,
2013-02-01 10:15:00,47.1,46.6,30.27,NNE,22,1.1,2.5,98,0.00,,---,0.00,VWS V14.01,2013-02-01 18:15:00,
2013-02-01 10:20:00,47.7,47.1,30.24,SE,135,1.1,1.1,98,0.00,,---,0.00,VWS V14.01,2013-02-01 18:20:00,
2013-02-01 10:25:00,47.8,47.0,30.24,ESE,112,2.9,2.9,97,0.00,,---,0.00,VWS V14.01,2013-02-01 18:25:00,
2013-02-01 10:30:00,48.2,47.4,30.24,ENE,68,0.0,0.0,97,0.00,,---,0.00,VWS V14.01,2013-02-01 18:30:00,
2013-02-01 10:35:00,48.4,47.3,30.24,NNE,22,0.0,2.9,96,0.00,,---,0.00,VWS V14.01,2013-02-01 18:35:00,
2013-02-01 10:40:00,48.6,47.5,30.24,ENE,68,0.0,0.0,96,0.00,,---,0.00,VWS V14.01,2013-02-01 18:40:00,
2013-02-01 10:45:00,48.7,47.4,30.24,NNE,22,0.0,2.0,95,0.00,,---,0.00,VWS V14.01,2013-02-01 18:45:00,
2013-02-01 10:50:00,48.9,47.5,30.24,WNW,292,2.0,2.0,95,0.00,,---,0.00,VWS V14.01,2013-02-01 18:50:00,
2013-02-01 10:56:00,49.1,47.7,30.24,WNW,292,2.0,2.0,95,0.00,,---,0.00,VWS V14.01,2013-02-01 18:56:00,
2013-02-01 11:01:00,49.5,47.8,30.24,ESE,112,0.9,0.9,94,0.00,,---,0.00,VWS V14.01,2013-02-01 19:01:00,
2013-02-01 11:06:00,49.8,48.2,30.24,NE,45,1.1,2.0,94,0.00,,---,0.00,VWS V14.01,2013-02-01 19:06:00,
2013-02-01 11:11:00,50.0,48.1,30.24,WNW,292,2.2,2.2,93,0.00,,---,0.00,VWS V14.01,2013-02-01 19:11:00,
2013-02-01 11:16:00,50.2,47.7,30.24,NNE,22,0.0,2.2,91,0.00,,---,0.00,VWS V14.01,2013-02-01 19:16:00,
2013-02-01 11:21:00,50.5,48.0,30.24,SSE,158,0.0,0.0,91,0.00,,---,0.00,VWS V14.01,2013-02-01 19:21:00,
2013-02-01 11:26:00,50.7,47.9,30.24,NNW,338,3.4,3.4,90,0.00,,---,0.00,VWS V14.01,2013-02-01 19:26:00,
2013-02-01 11:31:00,50.9,47.2,30.24,NNW,338,4.0,4.0,87,0.00,,---,0.00,VWS V14.01,2013-02-01 19:31:00,
2013-02-01 11:36:00,51.3,47.2,30.24,WNW,292,4.9,4.9,86,0.00,,---,0.00,VWS V14.01,2013-02-01 19:36:00,
2013-02-01 11:41:00,51.4,46.8,30.24,WNW,292,2.5,2.7,84,0.00,,---,0.00,VWS V14.01,2013-02-01 19:41:00,
2013-02-01 11:46:00,51.8,46.8,30.24,WNW,292,2.5,3.1,83,0.00,,---,0.00,VWS V14.01,2013-02-01 19:46:00,
2013-02-01 11:51:00,51.8,46.5,30.24,NW,315,3.8,3.8,82,0.00,,---,0.00,VWS V14.01,2013-02-01 19:51:00,
2013-02-01 11:56:00,52.2,46.2,30.24,WNW,292,0.0,3.8,80,0.00,,---,0.00,VWS V14.01,2013-02-01 19:56:00,
2013-02-01 12:02:00,52.0,45.7,30.24,NNW,338,5.4,5.4,79,0.00,,---,0.00,VWS V14.01,2013-02-01 20:02:00,
2013-02-01 12:07:00,52.0,45.3,30.24,NNE,22,3.4,5.4,78,0.00,,---,0.00,VWS V14.01,2013-02-01 20:07:00,
2013-02-01 12:12:00,51.8,45.2,30.24,NNW,338,3.1,4.3,78,0.00,,---,0.00,VWS V14.01,2013-02-01 20:12:00,
2013-02-01 12:17:00,51.8,45.8,30.24,North,0,3.4,5.6,80,0.00,,---,0.00,VWS V14.01,2013-02-01 20:17:00,
2013-02-01 12:22:00,51.8,45.8,30.24,NNW,338,2.2,3.6,80,0.00,,---,0.00,VWS V14.01,2013-02-01 20:22:00,
2013-02-01 12:27:00,51.8,46.2,30.24,NNE,22,3.1,3.6,81,0.00,,---,0.00,VWS V14.01,2013-02-01 20:27:00,
2013-02-01 12:32:00,52.0,46.3,30.24,WNW,292,4.0,4.0,81,0.00,,---,0.00,VWS V14.01,2013-02-01 20:32:00,
2013-02-01 12:37:00,52.2,46.5,30.21,East,90,0.0,4.0,81,0.00,,---,0.00,VWS V14.01,2013-02-01 20:37:00,
2013-02-01 12:42:00,52.5,46.9,30.21,NW,315,3.6,3.6,81,0.00,,---,0.00,VWS V14.01,2013-02-01 20:42:00,
2013-02-01 12:47:00,52.7,47.0,30.21,WNW,292,4.0,4.0,81,0.00,,---,0.00,VWS V14.01,2013-02-01 20:47:00,
2013-02-01 12:53:00,52.9,46.9,30.21,WNW,292,2.0,3.1,80,0.00,,---,0.00,VWS V14.01,2013-02-01 20:53:00,
2013-02-01 12:58:00,53.4,47.4,30.21,NNW,338,2.9,5.8,80,0.00,,---,0.00,VWS V14.01,2013-02-01 20:58:00,
2013-02-01 13:04:00,54.0,46.9,30.21,WNW,292,2.7,3.8,77,0.00,,---,0.00,VWS V14.01,2013-02-01 21:04:00,
2013-02-01 13:09:00,54.5,47.1,30.21,ESE,112,3.4,3.8,76,0.00,,---,0.00,VWS V14.01,2013-02-01 21:09:00,
2013-02-01 13:14:00,55.0,46.9,30.21,NNW,338,0.0,4.0,74,0.00,,---,0.00,VWS V14.01,2013-02-01 21:14:00,
2013-02-01 13:39:00,57.2,47.9,30.21,NNW,338,0.9,0.9,71,0.00,,---,0.00,VWS V14.01,2013-02-01 21:39:00,
2013-02-01 13:45:00,57.9,47.0,30.21,NNW,338,4.0,4.0,67,0.00,,---,0.00,VWS V14.01,2013-02-01 21:45:00,
2013-02-01 13:50:00,57.9,45.0,30.18,NNW,338,5.8,5.8,62,0.00,,---,0.00,VWS V14.01,2013-02-01 21:50:00,
2013-02-01 13:55:00,57.6,46.3,30.18,WNW,292,5.4,6.0,66,0.00,,---,0.00,VWS V14.01,2013-02-01 21:55:00,
2013-02-01 14:00:00,58.1,46.4,30.18,WNW,292,2.7,2.7,65,0.00,,---,0.00,VWS V14.01,2013-02-01 22:00:00,
2013-02-01 14:05:00,58.1,46.4,30.18,WNW,292,3.8,4.0,65,0.00,,---,0.00,VWS V14.01,2013-02-01 22:05:00,
2013-02-01 14:10:00,57.6,45.5,30.18,NNW,338,5.6,5.6,64,0.00,,---,0.00,VWS V14.01,2013-02-01 22:10:00,
2013-02-01 14:15:00,57.0,44.6,30.18,WNW,292,4.9,5.6,63,0.00,,---,0.00,VWS V14.01,2013-02-01 22:15:00,
2013-02-01 14:20:00,56.8,44.0,30.18,NW,315,3.6,5.6,62,0.00,,---,0.00,VWS V14.01,2013-02-01 22:20:00,
2013-02-01 14:25:00,56.7,44.6,30.18,NW,315,3.6,3.6,64,0.00,,---,0.00,VWS V14.01,2013-02-01 22:25:00,
2013-02-01 14:30:00,58.1,46.4,30.18,WNW,292,1.6,4.9,65,0.00,,---,0.00,VWS V14.01,2013-02-01 22:30:00,
2013-02-01 14:35:00,59.9,47.3,30.18,NNW,338,1.3,4.9,63,0.00,,---,0.00,VWS V14.01,2013-02-01 22:35:00,
2013-02-01 14:40:00,61.3,48.7,30.18,WNW,292,2.5,2.5,63,0.00,,---,0.00,VWS V14.01,2013-02-01 22:40:00,
2013-02-01 14:45:00,62.8,49.6,30.18,NNE,22,0.9,3.6,62,0.00,,---,0.00,VWS V14.01,2013-02-01 22:45:00,
2013-02-01 14:50:00,62.8,47.3,30.15,North,0,1.6,4.9,57,0.00,,---,0.00,VWS V14.01,2013-02-01 22:50:00,
2013-02-01 14:55:00,61.3,44.1,30.15,NW,315,3.1,3.1,53,0.00,,---,0.00,VWS V14.01,2013-02-01 22:55:00,
2013-02-01 15:00:00,59.9,42.7,30.15,NW,315,4.0,4.0,53,0.00,,---,0.00,VWS V14.01,2013-02-01 23:00:00,
2013-02-01 15:05:00,58.8,42.7,30.15,WNW,292,2.7,5.8,55,0.00,,---,0.00,VWS V14.01,2013-02-01 23:05:00,
2013-02-01 15:10:00,58.1,42.5,30.15,NW,315,3.4,6.5,56,0.00,,---,0.00,VWS V14.01,2013-02-01 23:10:00,
2013-02-01 15:15:00,57.2,43.0,30.15,NNW,338,2.0,3.4,59,0.00,,---,0.00,VWS V14.01,2013-02-01 23:15:00,
2013-02-01 15:20:00,56.7,43.0,30.15,NNE,22,6.0,6.0,60,0.00,,---,0.00,VWS V14.01,2013-02-01 23:20:00,
2013-02-01 15:25:00,56.3,43.0,30.15,NNW,338,2.9,6.0,61,0.00,,---,0.00,VWS V14.01,2013-02-01 23:25:00,
2013-02-01 15:30:00,56.5,44.0,30.15,NNW,338,3.1,3.1,63,0.00,,---,0.00,VWS V14.01,2013-02-01 23:30:00,
2013-02-01 15:35:00,56.8,44.8,30.15,NNW,338,1.3,3.6,64,0.00,,---,0.00,VWS V14.01,2013-02-01 23:35:00,
2013-02-01 15:40:00,56.8,44.8,30.15,NNW,338,1.6,1.6,64,0.00,,---,0.00,VWS V14.01,2013-02-01 23:40:00,
2013-02-01 15:45:00,56.8,44.8,30.15,NNW,338,3.8,3.8,64,0.00,,---,0.00,VWS V14.01,2013-02-01 23:45:00,
2013-02-01 15:50:00,56.8,44.8,30.15,NW,315,4.0,4.0,64,0.00,,---,0.00,VWS V14.01,2013-02-01 23:50:00,
2013-02-01 15:55:00,56.8,45.2,30.15,NNW,338,0.0,4.0,65,0.00,,---,0.00,VWS V14.01,2013-02-01 23:55:00,
2013-02-01 16:01:00,56.8,45.2,30.15,NNW,338,2.9,2.9,65,0.00,,---,0.00,VWS V14.01,2013-02-02 00:01:00,
2013-02-01 16:06:00,56.5,44.9,30.15,NNE,22,1.3,2.9,65,0.00,,---,0.00,VWS V14.01,2013-02-02 00:06:00,
2013-02-01 16:11:00,56.3,44.7,30.15,NNE,22,1.3,1.3,65,0.00,,---,0.00,VWS V14.01,2013-02-02 00:11:00,
2013-02-01 16:16:00,55.8,44.6,30.15,NNW,338,1.6,1.6,66,0.00,,---,0.00,VWS V14.01,2013-02-02 00:16:00,
2013-02-01 16:21:00,55.0,44.3,30.12,NW,315,3.8,3.8,67,0.00,,---,0.00,VWS V14.01,2013-02-02 00:21:00,
2013-02-01 16:26:00,54.7,44.3,30.12,WNW,292,0.9,3.8,68,0.00,,---,0.00,VWS V14.01,2013-02-02 00:26:00,
2013-02-01 16:31:00,54.3,44.0,30.12,NNW,338,1.1,2.7,68,0.00,,---,0.00,VWS V14.01,2013-02-02 00:31:00,
2013-02-01 16:36:00,54.0,44.0,30.12,NNW,338,1.3,2.7,69,0.00,,---,0.00,VWS V14.01,2013-02-02 00:36:00,
2013-02-01 16:41:00,53.8,44.2,30.12,NW,315,2.0,2.0,70,0.00,,---,0.00,VWS V14.01,2013-02-02 00:41:00,
2013-02-01 16:46:00,53.4,43.9,30.12,WNW,292,2.2,2.2,70,0.00,,---,0.00,VWS V14.01,2013-02-02 00:46:00,
2013-02-01 16:51:00,53.1,43.9,30.12,NNW,338,0.0,0.0,71,0.00,,---,0.00,VWS V14.01,2013-02-02 00:51:00,
2013-02-01 16:56:00,52.7,43.9,30.12,WNW,292,2.5,2.5,72,0.00,,---,0.00,VWS V14.01,2013-02-02 00:56:00,
2013-02-01 17:01:00,52.5,43.8,30.12,WNW,292,1.3,1.3,72,0.00,,---,0.00,VWS V14.01,2013-02-02 01:01:00,
2013-02-01 17:06:00,52.3,44.0,30.12,NW,315,0.0,1.3,73,0.00,,---,0.00,VWS V14.01,2013-02-02 01:06:00,
2013-02-01 17:11:00,52.0,43.6,30.12,NW,315,0.0,0.0,73,0.00,,---,0.00,VWS V14.01,2013-02-02 01:11:00,
2013-02-01 17:16:00,51.6,43.6,30.12,NW,315,0.0,0.0,74,0.00,,---,0.00,VWS V14.01,2013-02-02 01:16:00,
2013-02-01 17:21:00,51.3,43.3,30.12,NW,315,0.0,0.0,74,0.00,,---,0.00,VWS V14.01,2013-02-02 01:21:00,
2013-02-01 17:26:00,50.7,43.1,30.12,NW,315,0.0,0.0,75,0.00,,---,0.00,VWS V14.01,2013-02-02 01:26:00,
2013-02-01 17:31:00,50.5,43.3,30.12,NW,315,0.0,0.0,76,0.00,,---,0.00,VWS V14.01,2013-02-02 01:31:00,
2013-02-01 17:36:00,50.2,42.9,30.15,NW,315,0.0,0.0,76,0.00,,---,0.00,VWS V14.01,2013-02-02 01:36:00,
2013-02-01 17:41:00,50.0,43.1,30.15,NW,315,0.0,0.0,77,0.00,,---,0.00,VWS V14.01,2013-02-02 01:41:00,
2013-02-01 17:46:00,49.6,43.1,30.15,NW,315,0.0,0.0,78,0.00,,---,0.00,VWS V14.01,2013-02-02 01:46:00,
2013-02-01 17:51:00,48.9,42.4,30.15,NW,315,0.0,0.0,78,0.00,,---,0.00,VWS V14.01,2013-02-02 01:51:00,
2013-02-01 17:56:00,48.7,42.5,30.15,NW,315,0.0,0.0,79,0.00,,---,0.00,VWS V14.01,2013-02-02 01:56:00,
2013-02-01 18:01:00,48.6,42.7,30.15,NW,315,0.0,0.0,80,0.00,,---,0.00,VWS V14.01,2013-02-02 02:01:00,
2013-02-01 18:06:00,48.2,42.3,30.15,NW,315,0.0,0.0,80,0.00,,---,0.00,VWS V14.01,2013-02-02 02:06:00,
2013-02-01 18:11:00,48.0,42.5,30.15,NW,315,0.0,0.0,81,0.00,,---,0.00,VWS V14.01,2013-02-02 02:11:00,
2013-02-01 18:16:00,47.3,41.8,30.15,NW,315,0.0,0.0,81,0.00,,---,0.00,VWS V14.01,2013-02-02 02:16:00,
2013-02-01 18:21:00,47.1,41.6,30.15,NW,315,0.0,0.0,81,0.00,,---,0.00,VWS V14.01,2013-02-02 02:21:00,
2013-02-01 18:26:00,47.1,41.9,30.15,NW,315,0.0,0.0,82,0.00,,---,0.00,VWS V14.01,2013-02-02 02:26:00,
2013-02-01 18:32:00,46.6,41.4,30.15,NW,315,0.0,0.0,82,0.00,,---,0.00,VWS V14.01,2013-02-02 02:32:00,
2013-02-01 18:37:00,46.2,41.3,30.15,NW,315,0.0,0.0,83,0.00,,---,0.00,VWS V14.01,2013-02-02 02:37:00,
2013-02-01 18:42:00,46.2,41.7,30.15,ESE,112,0.0,0.0,84,0.00,,---,0.00,VWS V14.01,2013-02-02 02:42:00,
2013-02-01 18:47:00,46.0,41.5,30.15,ESE,112,0.0,0.0,84,0.00,,---,0.00,VWS V14.01,2013-02-02 02:47:00,
2013-02-01 18:52:00,45.5,41.0,30.15,ESE,112,0.0,0.0,84,0.00,,---,0.00,VWS V14.01,2013-02-02 02:52:00,
2013-02-01 18:57:00,45.3,40.8,30.15,ESE,112,0.0,0.0,84,0.00,,---,0.00,VWS V14.01,2013-02-02 02:57:00,
2013-02-01 19:02:00,45.1,40.9,30.15,ESE,112,0.0,0.0,85,0.00,,---,0.00,VWS V14.01,2013-02-02 03:02:00,
2013-02-01 19:07:00,45.1,40.9,30.15,ESE,112,0.0,0.0,85,0.00,,---,0.00,VWS V14.01,2013-02-02 03:07:00,
2013-02-01 19:12:00,44.8,40.5,30.15,ESE,112,0.0,0.0,85,0.00,,---,0.00,VWS V14.01,2013-02-02 03:12:00,
2013-02-01 19:17:00,44.6,40.4,30.15,ESE,112,0.0,0.0,85,0.00,,---,0.00,VWS V14.01,2013-02-02 03:17:00,
2013-02-01 19:22:00,44.6,40.7,30.15,ESE,112,0.0,0.0,86,0.00,,---,0.00,VWS V14.01,2013-02-02 03:22:00,
2013-02-01 19:27:00,44.2,40.3,30.15,ESE,112,0.0,0.0,86,0.00,,---,0.00,VWS V14.01,2013-02-02 03:27:00,
2013-02-01 19:32:00,44.2,40.3,30.15,ESE,112,0.0,0.0,86,0.00,,---,0.00,VWS V14.01,2013-02-02 03:32:00,
2013-02-01 19:37:00,44.1,40.2,30.15,ESE,112,0.0,0.0,86,0.00,,---,0.00,VWS V14.01,2013-02-02 03:37:00,
2013-02-01 19:42:00,44.2,40.3,30.15,SSE,158,0.0,0.0,86,0.00,,---,0.00,VWS V14.01,2013-02-02 03:42:00,
2013-02-01 19:47:00,44.1,40.2,30.15,SSE,158,0.0,0.0,86,0.00,,---,0.00,VWS V14.01,2013-02-02 03:47:00,
2013-02-01 19:52:00,43.9,40.3,30.15,SSE,158,0.0,0.0,87,0.00,,---,0.00,VWS V14.01,2013-02-02 03:52:00,
2013-02-01 19:58:00,43.7,40.1,30.15,SSE,158,0.0,0.0,87,0.00,,---,0.00,VWS V14.01,2013-02-02 03:58:00,
2013-02-01 20:03:00,44.1,40.5,30.15,SSE,158,0.0,0.0,87,0.00,,---,0.00,VWS V14.01,2013-02-02 04:03:00,
2013-02-01 20:08:00,43.5,39.9,30.15,SSE,158,0.0,0.0,87,0.00,,---,0.00,VWS V14.01,2013-02-02 04:08:00,
2013-02-01 20:13:00,43.3,39.7,30.15,SSE,158,0.0,0.0,87,0.00,,---,0.00,VWS V14.01,2013-02-02 04:13:00,
2013-02-01 20:18:00,43.3,39.7,30.15,SSE,158,0.0,0.0,87,0.00,,---,0.00,VWS V14.01,2013-02-02 04:18:00,
2013-02-01 20:23:00,43.3,39.7,30.15,SSE,158,0.0,0.0,87,0.00,,---,0.00,VWS V14.01,2013-02-02 04:23:00,
2013-02-01 20:28:00,43.2,39.6,30.15,SSE,158,0.0,0.0,87,0.00,,---,0.00,VWS V14.01,2013-02-02 04:28:00,
2013-02-01 20:33:00,43.3,39.7,30.15,SSE,158,0.0,0.0,87,0.00,,---,0.00,VWS V14.01,2013-02-02 04:33:00,
2013-02-01 20:38:00,43.3,39.7,30.15,SSE,158,0.0,0.0,87,0.00,,---,0.00,VWS V14.01,2013-02-02 04:38:00,
2013-02-01 20:43:00,43.3,39.7,30.15,SSE,158,0.0,0.0,87,0.00,,---,0.00,VWS V14.01,2013-02-02 04:43:00,
2013-02-01 20:48:00,43.0,39.4,30.15,SSE,158,0.0,0.0,87,0.00,,---,0.00,VWS V14.01,2013-02-02 04:48:00,
2013-02-01 20:53:00,43.0,39.7,30.15,SSE,158,0.0,0.0,88,0.00,,---,0.00,VWS V14.01,2013-02-02 04:53:00,
2013-02-01 20:58:00,42.8,39.5,30.15,SSE,158,0.0,0.0,88,0.00,,---,0.00,VWS V14.01,2013-02-02 04:58:00,
2013-02-01 21:00:00,42.6,39.3,30.15,SSE,158,0.0,0.0,88,0.00,,---,0.00,VWS V14.01,2013-02-02 05:00:00,
2013-02-01 21:01:00,42.4,39.1,30.15,SSE,158,0.0,0.0,88,0.00,,---,0.00,VWS V14.01,2013-02-02 05:01:00,
2013-02-01 21:02:00,42.4,39.1,30.15,SSE,158,0.0,0.0,88,0.00,,---,0.00,VWS V14.01,2013-02-02 05:02:00,
2013-02-01 21:03:00,42.4,39.4,30.15,SSE,158,0.0,0.0,89,0.00,,---,0.00,VWS V14.01,2013-02-02 05:03:00,
2013-02-01 21:08:00,42.4,39.4,30.15,SSE,158,0.0,0.0,89,0.00,,---,0.00,VWS V14.01,2013-02-02 05:08:00,
2013-02-01 21:14:00,42.4,39.4,30.15,SSE,158,0.0,0.0,89,0.00,,---,0.00,VWS V14.01,2013-02-02 05:14:00,
2013-02-01 21:19:00,42.3,39.3,30.15,SSE,158,0.0,0.0,89,0.00,,---,0.00,VWS V14.01,2013-02-02 05:19:00,
2013-02-01 21:24:00,42.4,39.4,30.15,SSE,158,0.0,0.0,89,0.00,,---,0.00,VWS V14.01,2013-02-02 05:24:00,
2013-02-01 21:29:00,42.3,39.3,30.15,SSE,158,0.0,0.0,89,0.00,,---,0.00,VWS V14.01,2013-02-02 05:29:00,
2013-02-01 21:34:00,42.3,39.3,30.15,SSE,158,0.0,0.0,89,0.00,,---,0.00,VWS V14.01,2013-02-02 05:34:00,
2013-02-01 21:39:00,42.3,39.3,30.15,SSE,158,0.0,0.0,89,0.00,,---,0.00,VWS V14.01,2013-02-02 05:39:00,
2013-02-01 21:44:00,41.9,38.9,30.15,SSE,158,0.0,0.0,89,0.00,,---,0.00,VWS V14.01,2013-02-02 05:44:00,
2013-02-01 21:49:00,41.7,38.7,30.15,SSE,158,0.0,0.0,89,0.00,,---,0.00,VWS V14.01,2013-02-02 05:49:00,
2013-02-01 21:54:00,41.9,39.2,30.18,SSE,158,0.0,0.0,90,0.00,,---,0.00,VWS V14.01,2013-02-02 05:54:00,
2013-02-01 21:59:00,41.5,38.8,30.18,SSE,158,0.0,0.0,90,0.00,,---,0.00,VWS V14.01,2013-02-02 05:59:00,
2013-02-01 22:04:00,41.7,39.0,30.18,SSE,158,0.0,0.0,90,0.00,,---,0.00,VWS V14.01,2013-02-02 06:04:00,
2013-02-01 22:09:00,41.5,38.8,30.18,SSE,158,0.0,0.0,90,0.00,,---,0.00,VWS V14.01,2013-02-02 06:09:00,
2013-02-01 22:14:00,41.0,38.3,30.18,SSE,158,0.0,0.0,90,0.00,,---,0.00,VWS V14.01,2013-02-02 06:14:00,
2013-02-01 22:19:00,40.6,37.9,30.18,SSE,158,0.0,0.0,90,0.00,,---,0.00,VWS V14.01,2013-02-02 06:19:00,
2013-02-01 22:24:00,40.5,37.8,30.18,SSE,158,0.0,0.0,90,0.00,,---,0.00,VWS V14.01,2013-02-02 06:24:00,
2013-02-01 22:29:00,40.3,37.6,30.18,SSE,158,0.0,0.0,90,0.00,,---,0.00,VWS V14.01,2013-02-02 06:29:00,
2013-02-01 22:34:00,40.6,38.2,30.18,SSE,158,0.0,0.0,91,0.00,,---,0.00,VWS V14.01,2013-02-02 06:34:00,
2013-02-01 22:39:00,40.5,38.0,30.18,SSE,158,0.0,0.0,91,0.00,,---,0.00,VWS V14.01,2013-02-02 06:39:00,
2013-02-01 22:44:00,40.6,38.2,30.18,SSE,158,0.0,0.0,91,0.00,,---,0.00,VWS V14.01,2013-02-02 06:44:00,
2013-02-01 22:49:00,39.9,37.2,30.18,SSE,158,0.0,0.0,90,0.00,,---,0.00,VWS V14.01,2013-02-02 06:49:00,
2013-02-01 22:54:00,40.1,37.4,30.21,SSE,158,0.0,0.0,90,0.00,,---,0.00,VWS V14.01,2013-02-02 06:54:00,
2013-02-01 22:59:00,40.1,37.7,30.21,SSE,158,1.1,1.1,91,0.00,,---,0.00,VWS V14.01,2013-02-02 06:59:00,
2013-02-01 23:04:00,39.2,36.5,30.21,SSE,158,1.1,1.1,90,0.00,,---,0.00,VWS V14.01,2013-02-02 07:04:00,
2013-02-01 23:09:00,39.0,36.6,30.18,SSE,158,1.1,1.1,91,0.00,,---,0.00,VWS V14.01,2013-02-02 07:09:00,
2013-02-01 23:14:00,38.8,36.4,30.18,SSE,158,1.1,1.1,91,0.00,,---,0.00,VWS V14.01,2013-02-02 07:14:00,
2013-02-01 23:19:00,39.0,36.6,30.18,SSE,158,1.1,1.1,91,0.00,,---,0.00,VWS V14.01,2013-02-02 07:19:00,
2013-02-01 23:24:00,39.4,37.2,30.21,SSE,158,1.1,1.1,92,0.00,,---,0.00,VWS V14.01,2013-02-02 07:24:00,
2013-02-01 23:29:00,39.6,37.4,30.21,SSE,158,1.1,1.1,92,0.00,,---,0.00,VWS V14.01,2013-02-02 07:29:00,
2013-02-01 23:34:00,39.7,37.6,30.21,South,180,0.0,1.1,92,0.00,,---,0.00,VWS V14.01,2013-02-02 07:34:00,
2013-02-01 23:39:00,39.9,37.8,30.21,South,180,0.0,1.1,92,0.00,,---,0.00,VWS V14.01,2013-02-02 07:39:00,
2013-02-01 23:44:00,40.1,38.0,30.21,SSE,158,1.3,1.3,92,0.00,,---,0.00,VWS V14.01,2013-02-02 07:44:00,
2013-02-01 23:49:00,40.3,38.2,30.21,SSE,158,1.1,1.3,92,0.00,,---,0.00,VWS V14.01,2013-02-02 07:49:00,
2013-02-01 23:55:00,40.3,38.2,30.21,SSE,158,1.1,1.1,92,0.00,,---,0.00,VWS V14.01,2013-02-02 07:55:00,